Peni Tuyaga

Chief Scout - Labasa
6 Jan 2028
Thursday
Process

Personality

Adaptability (10) Ambition (3) Controversy (6) Loyalty (3) Pressure (9) Professionalism (19) Sportsmanship (15) Temperament (5)

Profile

Coaching Style Democratic
License Continental Pro
Determination 1
Man Management 3
Motivating 5
Discipline 6
Job Satisfaction
100%
Fatigue
0%
Role Chief Scout
Wage 16.8K p/w
Contract 14.03.2028

Performance

Behaviour Good
Training Effectiveness
13%
Player Development
10%
Injury Prevention
10%
Tactical Implementation
15%

Recent Events

Contract negotiation started now
Assessed a player now
Attended a recruitment meeting now
Voted against a transfer target now
Assessed a player 7d ago
Contract negotiation started 7d ago
Assessed a player 7d ago
Assessed a player 7d ago

Currently Monitoring

403
Player Club Status Ability Confidence Watched Last Observed Latest Vote
Andrés Macea Real Santander Active 109 / 95 40% 1 03.01.2028 -
Axel Afonso Atlético Tucumán Active 92 / 104 40% 1 03.01.2028 -
Denilson Ojeda Carabobo Active 98 / 80 40% 3 02.01.2028 -
Matías Recalde Gimnasia y Esgrima Active 96 / 98 40% 2 02.01.2028 -
Dixon Rentería San Miguel Active 104 / 117 40% 5 02.01.2028 -
Ciro Thompson Newell's Old Boys Active 113 / 112 40% 1 02.01.2028 -
Mohamad Anez Borneo Active 103 / 93 40% 2 01.01.2028 -
Awan Setho Bhayangkara Presisi Active 92 / 67 40% 2 01.01.2028 -
Godwin Akpobolouka Brisbane Roar Active 62 / 70 40% 1 01.01.2028 -
Mateo Pereyra Tacuarembo Active 93 / 98 40% 1 01.01.2028 -
Agustín Bolívar Quilmes Active 125 / 121 40% 6 31.12.2027 -
Sergio Pabón Deportes Quindio Active 111 / 112 40% 2 31.12.2027 -
Harlan Suardi PSIM Active 61 / 86 40% 1 31.12.2027 -
Germán Peralta La Luz Active 111 / 116 40% 1 31.12.2027 -
Nahuel Pezzini Arsenal Active 108 / 113 40% 3 30.12.2027 -
Óscar Vanegas Güemes Active 117 / 94 40% 1 30.12.2027 -
Harrison Devenish-Meares Western Sydney Wanderers Active 109 / 91 40% 1 30.12.2027 -
Abel Argañaraz Gimnasia y Esgrima Active 102 / 94 40% 6 29.12.2027 -
Federico Acosta Miramar Misiones Active 88 / 111 40% 4 29.12.2027 -
Vlatko Stojanovski Mashal Active 77 / 102 40% 2 28.12.2027 -
Nicolás Moreno San Martín Active 119 / 117 40% 6 28.12.2027 -
Olughu Chinemerem Fenix Active 78 / 91 40% 6 27.12.2027 -
Jeremias Vazquez Jubilo Iwata Active 95 / 104 40% 1 27.12.2027 -
Agustín Chopitea Colon Active 113 / 95 40% 3 26.12.2027 -
Federico Sena Estudiantes Active 111 / 97 40% 1 26.12.2027 -
Eduardo Esterilla Deportes Quindio Active 76 / 79 40% 6 24.12.2027 -
Angel Uñates Güemes Active 93 / 84 40% 3 24.12.2027 -
Brayan Castro Bogota Active 97 / 101 40% 2 24.12.2027 -
José Castellano Mineros de Guayana Active 101 / 102 40% 1 24.12.2027 -
Agustín Mieres Atlanta Active 112 / 83 40% 3 23.12.2027 -
Kolawole Oladipo Zhetysu Active 90 / 88 40% 1 23.12.2027 -
Nathan Amanatidis Brisbane Roar Active 96 / 89 40% 4 22.12.2027 -
Pablo da Silveira Cerro Active 86 / 95 40% 3 22.12.2027 -
Facundo Lemos Artigas Active 101 / 93 40% 2 22.12.2027 -
Emanuel Iñíguez Morón Active 104 / 104 40% 2 22.12.2027 -
Rocco Pasquale Atlanta Active 105 / 81 40% 1 22.12.2027 -
Devan Tanton Aguilas Doradas Active 77 / 85 40% 1 21.12.2027 -
Ali Mekawir Navua Active 72 / 68 40% 5 20.12.2027 -
Joaquín Ochoa Giménez Arsenal Active 112 / 93 40% 3 20.12.2027 -
Dylan Cabral Arsenal Active 115 / 121 40% 9 19.12.2027 -
Lucas Cardoso Maluku Utara United Active 72 / 96 40% 4 18.12.2027 -
Gustavo Rodriguez Valledupar Rejected 118 / 95 40% 4 18.12.2027 Reject
Mohammed Galadima Navbahor Active 90 / 101 40% 2 18.12.2027 -
Tomás Velásquez Deportes Tolima Active 87 / 90 40% 3 17.12.2027 -
Ariel Castellano Alvarado Active 96 / 109 40% 6 16.12.2027 -
Marcelo Miño Ferro Carril Oeste Active 106 / 126 40% 4 14.12.2027 -
Bonphas Munyasa Persebaya Active 65 / 83 40% 2 14.12.2027 -
Nicolás Iachetti San Martín SJ Active 108 / 105 40% 2 12.12.2027 -
Nahuel Suárez La Luz Active 115 / 122 40% 2 11.12.2027 -
Luca Barreto La Luz Active 117 / 99 40% 1 11.12.2027 -
Simón Contreras Iquique Active 109 / 87 40% 1 11.12.2027 -
Lucas Camejo River Plate Active 104 / 105 40% 2 10.12.2027 -
Agustín Lastra Estudiantes Active 115 / 106 40% 2 10.12.2027 -
Samuel Posada Leones Active 94 / 80 40% 2 10.12.2027 -
Samuel Peréa Bogota Active 70 / 82 40% 3 09.12.2027 -
Luciano Perdomo Chacarita Juniors Active 114 / 120 40% 2 09.12.2027 -
Julián Vitale Almagro Active 96 / 107 40% 1 09.12.2027 -
Nazareno Kihm Ferro Carril Oeste Active 128 / 102 40% 5 05.12.2027 -
Facundo Rodríguez Talleres Active 74 / 101 40% 1 04.12.2027 -
Gabriel Carrasco Los Andes Active 109 / 99 40% 3 01.12.2027 -
Luis Corredor Estudiantes de Caracas Active 105 / 98 40% 3 01.12.2027 -
Rosyad Setiawan Semen Padang Active 53 / 74 40% 1 01.12.2027 -
Andrés Tovar Patriotas Active 108 / 91 40% 2 30.11.2027 -
Jonathan Baeza La Luz Active 88 / 97 40% 1 30.11.2027 -
Enzo Martínez Almagro Active 97 / 105 40% 1 29.11.2027 -
Gabriel Altamirano Almirante Brown Active 116 / 102 40% 4 28.11.2027 -
Milton Cantero Talleres Active 99 / 114 40% 1 27.11.2027 -
Julián Lobelos Arsenal Active 104 / 94 40% 3 26.11.2027 -
Ignacio Palacio All Boys Active 102 / 104 40% 3 25.11.2027 -
Gonzalo Larrazábal Deportivo Maldonado Active 121 / 94 40% 1 24.11.2027 -
Joaquín Canadell Quilmes Active 90 / 112 40% 2 22.11.2027 -
Franco Rivasseau Patronato Active 114 / 108 40% 1 22.11.2027 -
Matías Canedo Rampla Juniors Active 83 / 95 40% 2 21.11.2027 -
Gonzalo Asis Almagro Active 117 / 120 40% 3 19.11.2027 -
Nicolás Previtali Atlanta Active 97 / 117 40% 2 19.11.2027 -
Daniel Acosta Unión de Santa Fe Active 90 / 96 40% 2 17.11.2027 -
Aly Ndom Persijap Active 72 / 81 40% 3 17.11.2027 -
Danil Baklanov Suva Active 80 / 65 40% 1 17.11.2027 -
Thiago Yossen Madryn Active 92 / 107 40% 2 15.11.2027 -
Carlos Murillo Atletico Venezuela Active 90 / 112 40% 1 15.11.2027 -
Joaquín Mateo Central Norte Active 114 / 95 40% 2 14.11.2027 -
Agustín Díaz Estudiantes de Caracas Active 84 / 66 40% 3 12.11.2027 -
Braian Rivero Atlanta Active 110 / 117 40% 2 12.11.2027 -
Alejandro Arana FC Tokyo Active 85 / 77 40% 1 09.11.2027 -
Luciano Peraggini Maipú Active 123 / 99 40% 1 09.11.2027 -
Nahuel Frascone Arsenal Active 88 / 109 40% 3 08.11.2027 -
Mauricio Lacerda Miramar Misiones Active 102 / 75 40% 3 07.11.2027 -
Nicolás Ferreyra Gimnasia y Esgrima Active 126 / 125 40% 5 06.11.2027 -
Matías Mansilla Alvarado Active 117 / 97 40% 3 06.11.2027 -
Agustín Dávila Rentistas Active 84 / 104 40% 1 06.11.2027 -
Bruno Motta Oriental Active 73 / 80 40% 1 05.11.2027 -
Nicolás Baigorria San Telmo Active 102 / 99 40% 2 04.11.2027 -
Leandro Allende Colón Active 106 / 128 40% 2 02.11.2027 -
Diego Bolaños Argentinos Juniors Active 87 / 85 40% 2 01.11.2027 -
Zakhele Shabangu Bnei Sakhnin Active 73 / 71 40% 1 01.11.2027 -
Francisco Di Franco Defensores Unidos Active 99 / 114 40% 2 30.10.2027 -
Thomas Rodríguez Banfield Active 100 / 91 40% 1 30.10.2027 -
Matteo Trombini Arsenal Active 122 / 112 40% 1 27.10.2027 -
Federico Montiel Agropecuario Argentino Active 91 / 86 40% 1 27.10.2027 -
Facundo Cardozo San Miguel Active 124 / 104 40% 2 26.10.2027 -
Facundo Villarreal Los Andes Active 99 / 92 40% 2 26.10.2027 -
Ryuta Koike Kashima Antlers Active 124 / 109 40% 1 25.10.2027 -
José Álvarez Albion Active 123 / 129 40% 1 25.10.2027 -
José Luis García Alianza Petrolera Active 92 / 93 40% 1 23.10.2027 -
Sairusi Nalaubu Lautoka Active 93 / 86 40% 2 20.10.2027 -
Iván Fernández Colegiales Active 106 / 101 40% 6 20.10.2027 -
Fidel Tourn Albion Active 87 / 98 40% 1 19.10.2027 -
Valentín Díaz Temperley Active 92 / 105 40% 2 18.10.2027 -
Armando Preciado Deportes Quindio Active 85 / 95 40% 1 18.10.2027 -
Ramón Bueno Persita Active 114 / 99 40% 1 16.10.2027 -
Diego Magallanes Defensores Active 98 / 119 40% 3 15.10.2027 -
Italo Espinoza San Martín Active 122 / 120 40% 1 14.10.2027 -
Lukas Ramil Sauer All Boys Active 124 / 122 40% 1 14.10.2027 -
Wladimir Cid Santiago Wanderers Active 89 / 83 40% 1 12.10.2027 -
Mpho Mathebula Astana Active 110 / 91 40% 1 11.10.2027 -
Emiliano Zambrano Gimnasia y Esgrima Active 93 / 91 40% 2 08.10.2027 -
Cristian Santander Barranquilla Active 118 / 125 40% 1 08.10.2027 -
Iván Zafarana All Boys Active 114 / 102 40% 1 08.10.2027 -
Cristian González Cerrito Active 104 / 93 40% 10 07.10.2027 -
Alex Garbett Southern United Active 63 / 82 40% 1 07.10.2027 -
Lungisani Mncwabe PSIM Active 64 / 55 40% 1 01.10.2027 -
Ilham Udin Armayn PSBS Biak Active 93 / 78 40% 1 01.10.2027 -
Santiago Briñone San Martín Active 102 / 102 40% 5 29.09.2027 -
Siyabonga Dube Taraz Active 97 / 100 40% 1 29.09.2027 -
Mauro Molina Estudiantes Active 126 / 108 40% 3 27.09.2027 -
Jerónimo Porto Lapegüe San Telmo Active 105 / 120 40% 1 27.09.2027 -
Thiago Perruisset Boca Juniors Active 108 / 92 40% 2 24.09.2027 -
Tomás Lingua Rentistas Active 114 / 107 40% 1 23.09.2027 -
Leonardo González Colegiales Active 95 / 115 40% 2 17.09.2027 -
Federico Álvarez Atlanta Active 111 / 100 40% 2 17.09.2027 -
Joel Abraham Boston River Active 99 / 79 40% 4 14.09.2027 -
Ezequiel Ramírez All Boys Active 96 / 100 40% 2 12.09.2027 -
Fernando Macedo Zulia Active 54 / 61 40% 2 12.09.2027 -
Agustín Acosta Atenas Active 81 / 94 40% 2 12.09.2027 -
Buyung Ismu Lessy Persijap Active 83 / 73 40% 1 12.09.2027 -
Nicolás Talpone Colón Active 110 / 99 40% 1 12.09.2027 -
Felipe Serrés Wanderers Active 102 / 91 40% 1 11.09.2027 -
Giancarlo García Deportivo Pereira Active 81 / 79 40% 1 11.09.2027 -
Monwabisi Mwondla Aktobe Active 68 / 85 40% 1 11.09.2027 -
Lautaro Herrera Estudiantes Active 113 / 94 40% 3 08.09.2027 -
Joaquín Bigo Tristán Suárez Active 106 / 120 40% 4 06.09.2027 -
Zane Helweh Macarthur FC Active 88 / 101 40% 2 06.09.2027 -
Fabricio Hass Central Norte Active 104 / 93 40% 1 06.09.2027 -
Delfor Minervino Estudiantes Active 131 / 117 40% 1 05.09.2027 -
Pablo Viudez Rentistas Active 92 / 89 40% 3 02.09.2027 -
Lucas Machado Defensor Sporting Active 91 / 104 40% 1 01.09.2027 -
Nahuel Marzochi Colon Active 105 / 111 40% 3 31.08.2027 -
Franco Balmaceda Quilmes Active 98 / 100 40% 1 31.08.2027 -
Lukas González Cerro Largo Active 102 / 91 40% 3 30.08.2027 -
Miguel Pernía Estudiantes de Caracas Active 93 / 106 40% 6 30.08.2027 -
Bayanda Zulu Aktobe Active 97 / 80 40% 1 30.08.2027 -
Francisco Borda Central Norte Active 92 / 110 40% 1 30.08.2027 -
Juan Galetto Gimnasia y Tiro Active 125 / 118 40% 1 29.08.2027 -
Sam Singh WaiBOP United Active 88 / 88 40% 1 28.08.2027 -
Agustín Rodríguez Colon Active 89 / 98 40% 3 26.08.2027 -
Juan Pablo Córdoba Gimnasia y Esgrima Active 93 / 125 40% 1 24.08.2027 -
Hosine Bility Brisbane Roar Active 102 / 105 40% 2 22.08.2027 -
Kevin Chacón Barranquilla Active 109 / 107 40% 2 21.08.2027 -
Joaquín Livera Morón Active 110 / 99 40% 1 21.08.2027 -
Bautista Pereira Danubio Active 78 / 96 40% 3 20.08.2027 -
Aldo Rimbelitti Almagro Active 105 / 88 40% 1 20.08.2027 -
Juan Ramírez Estudiantes de Caracas Active 68 / 93 40% 1 15.08.2027 -
Nahuel Yzaurralde Quilmes Active 101 / 107 40% 1 15.08.2027 -
Chris Payne WaiBOP United Active 71 / 73 40% 1 14.08.2027 -
José Pérez Universitario Popayan Active 107 / 104 40% 2 12.08.2027 -
Franco Tejera Oriental Active 75 / 95 40% 1 11.08.2027 -
Felipe Rivarola San Martín Active 105 / 113 40% 1 11.08.2027 -
Felipe San Juan Gimnasia y Esgrima Active 127 / 113 40% 1 10.08.2027 -
Juan Cruz Franzoni Gimnasia y Esgrima Active 119 / 109 40% 1 10.08.2027 -
Ali Auglah Central Coast Mariners Active 97 / 84 40% 8 07.08.2027 -
Nurhidayat PSBS Biak Active 73 / 81 40% 1 07.08.2027 -
Matías Salerno San Telmo Active 92 / 116 40% 2 04.08.2027 -
Mauro Schönfeld Morón Active 115 / 117 40% 1 02.08.2027 -
Nelson Espinoza Union La Calera Active 87 / 107 40% 1 02.08.2027 -
Agustín Solari 12 de Octubre Active 97 / 93 40% 1 02.08.2027 -
Milorad Stajić Brisbane Roar Active 90 / 101 40% 4 01.08.2027 -
Mohamed Bolivar Barranquilla Active 71 / 109 40% 1 29.07.2027 -
Fabián Ocampos 12 de Octubre Active 63 / 91 40% 1 29.07.2027 -
José Duarte Tacuarembo Active 67 / 101 40% 1 28.07.2027 -
Macklin Freke Melbourne City Active 107 / 104 40% 2 26.07.2027 -
Federico Bonetto River Plate Active 90 / 73 40% 1 26.07.2027 -
Manuel Idiarte Juventud Active 71 / 102 40% 1 26.07.2027 -
Thiago Cano Banfield Active 74 / 103 40% 2 24.07.2027 -
Juan Ignacio Berasi Colón Active 79 / 100 40% 3 24.07.2027 -
Gabriel Salguero Rewa Active 82 / 80 40% 2 22.07.2027 -
Martín González San Telmo Active 110 / 105 40% 2 22.07.2027 -
José Movillo O'Higgins Active 66 / 87 40% 1 22.07.2027 -
Juan Pablo Perrotta Santiago Wanderers Active 108 / 104 40% 1 20.07.2027 -
Emiliano Bértoli Patronato Active 81 / 88 40% 1 18.07.2027 -
Daniel Ferraresi Llaneros Active 69 / 97 40% 1 15.07.2027 -
Agustín da Rocha Cerrito Active 74 / 107 40% 1 15.07.2027 -
Nicolás Fuica Deportivo Maldonado Active 105 / 97 40% 2 14.07.2027 -
Lukas Kelly-Heald Wellington Phoenix Active 101 / 94 40% 1 12.07.2027 -
Kristian Popovic Central Coast Mariners Active 87 / 97 40% 4 11.07.2027 -
Matías Améstica Santiago Wanderers Active 92 / 83 40% 2 11.07.2027 -
Barrie Limoki Nadroga Active 60 / 67 40% 1 10.07.2027 -
Iván Spoljaric Ayacucho Active 81 / 96 40% 1 08.07.2027 -
Azat Beysebekov Akzhaiyk Active 97 / 88 40% 1 08.07.2027 -
Fernando Gutiérrez Aragua Active 83 / 82 40% 1 06.07.2027 -
Ben van Dorssen Rewa Active 59 / 59 40% 1 05.07.2027 -
Mariano Nichele Cerro Active 79 / 80 40% 2 04.07.2027 -
Christian Bracco Team Wellington Active 71 / 92 40% 1 04.07.2027 -
Luquinhas Alianza Petrolera Active 62 / 70 40% 1 03.07.2027 -
Harold Sandoval Bogota Active 66 / 88 40% 1 02.07.2027 -
Kevin Lezcano Guarani Active 102 / 93 40% 1 01.07.2027 -
Jefferson Romero Estudiantes de Merida Active 92 / 87 40% 1 30.06.2027 -
Facundo López Morón Active 88 / 95 40% 1 28.06.2027 -
Solomon Onyedikachi Nasinu Active 70 / 70 40% 1 28.06.2027 -
Benjamín Rodríguez Rentistas Active 81 / 83 40% 3 27.06.2027 -
Rodrigo Fernández Alvarado Active 99 / 83 40% 2 26.06.2027 -
Wilmer Bustamante Real Santander Active 99 / 89 40% 1 26.06.2027 -
Joela Biuvanua Lautoka Active 60 / 71 40% 1 22.06.2027 -
Thomas Carosio San Miguel Active 93 / 105 40% 2 20.06.2027 -
Samuela Nasava Tailevu Naitasiri Active 56 / 59 30% 1 / 1m 16.06.2027 -
Eneriko Matau Nadi Active 62 / 65 52% 1 / 1m 16.06.2027 -
Camilo Astroza Santiago Wanderers Active 90 / 80 40% 3 14.06.2027 -
Juan Cruz Carranza Nueva Chicago Active 98 / 111 40% 1 14.06.2027 -
Gaizka Gómez Wanderers Active 90 / 77 40% 1 14.06.2027 -
Nicolas Villa Melbourne City Active 91 / 81 40% 1 13.06.2027 -
Gabriel Risso Patrón Colón Active 97 / 125 40% 1 12.06.2027 -
Chris Donnell Central Coast Mariners Active 84 / 97 40% 1 11.06.2027 -
Ever Valencia Independiente Medellin Active 128 / 102 40% 1 04.06.2027 -
Lucas Ortíz Uruguay Montevideo Active 102 / 100 40% 2 03.06.2027 -
Ryan Chandra Nasinu Active 52 / 42 44% 1 02.06.2027 -
Wonderson Yakubu Hapoel Raanana Active 61 / 86 40% 5 01.06.2027 -
Nicolás Campos Central Espanol Active 78 / 87 40% 2 01.06.2027 -
Alan Torterolo Defensor Sporting Active 73 / 110 40% 2 31.05.2027 -
Leon Kofana Rewa Active 66 / 62 40% 1 31.05.2027 -
Yuval Kretzo Maccabi Petach Tikva Active 61 / 75 40% 7 29.05.2027 -
Álex Segura Real Santander Active 85 / 101 40% 2 24.05.2027 -
Yastin Cuevas Colo-Colo Active 107 / 88 40% 1 24.05.2027 -
Juan Diego Mendoza Real Santander Active 97 / 74 40% 1 21.05.2027 -
Pablo Suárez Rentistas Active 108 / 101 40% 1 20.05.2027 -
Frets Butuan Maluku Utara United Active 72 / 75 40% 1 20.05.2027 -
Lucas Viana Progreso Active 80 / 86 40% 1 18.05.2027 -
Joel Erlinch Racing Active 94 / 81 40% 1 15.05.2027 -
Carlos Durán Barranquilla Active 87 / 88 40% 1 14.05.2027 -
Mateo Rodríguez Artigas Active 84 / 66 40% 1 12.05.2027 -
Santiago Vargas Artigas Active 73 / 91 40% 1 11.05.2027 -
Facundo Martínez Montevideo City Torque Active 68 / 81 40% 1 11.05.2027 -
Shaker Abu Husein Bnei Sakhnin Active 87 / 93 40% 1 09.05.2027 -
Miguel Marulanda Envigado Active 87 / 99 40% 1 08.05.2027 -
Luciano Aberasteguy Deportivo Maldonado Active 87 / 72 40% 4 05.05.2027 -
Carlos da Rosa Cerro Active 81 / 100 40% 1 05.05.2027 -
Federico Amestoy Miramar Misiones Active 62 / 78 40% 1 25.04.2027 -
Franco Caro Defensores Active 86 / 86 40% 1 24.04.2027 -
Anthony Didulica Perth Glory Active 64 / 79 40% 1 23.04.2027 -
Gaspar Padilla Gimnasia y Esgrima Active 73 / 93 40% 1 17.04.2027 -
Mack Cleberson Murillo Tigres Active 81 / 104 40% 1 15.04.2027 -
Benjamín Zuqui Patronato Active 71 / 83 40% 1 15.04.2027 -
Thiago Rojas Defensa y Justicia Active 92 / 91 40% 1 11.04.2027 -
David Maguicha Atlanta Active 81 / 79 40% 1 10.04.2027 -
Sibongakonke Nkosi Metallurg Active 66 / 66 40% 1 09.04.2027 -
Tiago Taobas Central Norte Active 103 / 89 40% 1 09.04.2027 -
Yeison Castillo Real Santander Active 99 / 73 40% 1 07.04.2027 -
Juan Manuel Mazzolo Maipú Active 89 / 84 40% 2 05.04.2027 -
Luca Duarte Arsenal Active 86 / 98 40% 2 04.04.2027 -
Maximiliano Arias Defensores Active 68 / 83 40% 1 03.04.2027 -
Enzo Abondetto Central Norte Active 107 / 94 40% 2 02.04.2027 -
Luca Bastilla Nautico Active 72 / 80 40% 1 02.04.2027 -
Bautista Hernández San Lorenzo Active 105 / 90 40% 1 31.03.2027 -
Bautista Casas Medina Alvarado Active 60 / 76 40% 1 30.03.2027 -
Yoel Marchi Vélez Active 102 / 78 40% 1 30.03.2027 -
Lucas Acosta 12 de Octubre Active 83 / 79 40% 1 29.03.2027 -
Diego Rodríguez Santa Fe Active 83 / 77 40% 1 26.03.2027 -
Rodrigo Martínez Nacional Active 103 / 106 40% 1 25.03.2027 -
Axel Pedrozo Almagro Active 77 / 85 40% 1 22.03.2027 -
Simón Meza Cerrito Active 71 / 78 40% 2 20.03.2027 -
Yonghyun Park Barracas Central Active 68 / 89 40% 2 18.03.2027 -
Angus Kilkolly Auckland City Active 89 / 87 40% 1 16.03.2027 -
Francisco Sagardia Rampla Juniors Active 92 / 92 40% 1 15.03.2027 -
Franco Pulian Chacarita Juniors Active 95 / 85 40% 1 14.03.2027 -
Martín Astudillo Racing Active 75 / 92 40% 1 13.03.2027 -
Lautaro Paz Central Córdoba SdE Active 80 / 86 40% 2 09.03.2027 -
Ezequiel Santa Cruz Barracas Central Active 77 / 73 40% 1 07.03.2027 -
Diego Píriz Danubio Active 87 / 78 40% 1 07.03.2027 -
Michel Silveira Rentistas Active 103 / 95 40% 1 06.03.2027 -
Catriel Peña Racing Active 63 / 97 40% 1 06.03.2027 -
David Ojeda Barracas Central Active 71 / 75 40% 1 05.03.2027 -
Bruno Barrionuevo Godoy Cruz Active 82 / 83 40% 2 04.03.2027 -
Valentino Chiarotti Unión de Santa Fe Active 83 / 104 40% 1 26.02.2027 -
Bruno Hernández Cerro Largo Active 101 / 89 40% 1 16.02.2027 -
Renzo Sastre Madryn Active 75 / 66 40% 1 16.02.2027 -
Francisco Décima Independiente Medellin Active 99 / 87 40% 1 09.02.2027 -
Mateo Rivas Independiente Medellin Active 84 / 75 40% 1 06.02.2027 -
Fabricio Mendieta Belgrano Active 85 / 78 40% 1 31.01.2027 -
Leandro Milito Racing Club Active 86 / 96 40% 1 27.01.2027 -
Tobias Canale Almagro Active 76 / 100 40% 1 21.01.2027 -
Fabian Talladira Adelaide United Active 70 / 93 40% 5 17.01.2027 -
Israel Boatwright Adelaide United Active 94 / 84 40% 1 11.01.2027 -
Juan Esteban García Deportes Tolima Active 62 / 99 40% 1 11.01.2027 -
Alex Stamatelopoulos Waitakere United Active 63 / 77 40% 1 05.01.2027 -
Matías Cantero All Boys Active 77 / 83 40% 1 31.12.2026 -
Valentín Dutruel Racing Active 86 / 97 40% 1 29.12.2026 -
Hernán Cosme Aguilas Doradas Active 96 / 79 40% 1 29.12.2026 -
Thiago Perugini San Lorenzo Active 76 / 95 40% 2 25.12.2026 -
Bautista Mazieres Aldosivi Active 93 / 74 40% 1 25.12.2026 -
Joshua Inserra Melbourne Victory Active 82 / 97 40% 1 25.12.2026 -
Maximiliano Puig Barracas Central Active 116 / 94 40% 1 25.12.2026 -
Tiago Borquez Gimnasia y Tiro Active 89 / 103 40% 2 22.12.2026 -
Marley Tavaziva Boa Active 53 / 78 40% 2 22.12.2026 -
Lautaro Daus Defensores Active 101 / 110 40% 1 22.12.2026 -
Iván Chaves Patronato Active 91 / 90 40% 2 21.12.2026 -
Sebastián Cáceres Montevideo City Torque Active 96 / 87 40% 1 17.12.2026 -
Ignacio Coscio Huracán Active 92 / 107 40% 1 17.12.2026 -
James Hilton Macarthur FC Active 75 / 74 40% 1 15.12.2026 -
Keiber Roa Carabobo Active 61 / 77 40% 1 13.12.2026 -
Callum Reid Southern United Active 73 / 67 40% 1 12.12.2026 -
Camilo Sánchez Miramar Misiones Active 99 / 92 40% 1 12.12.2026 -
Rodrigo Frutos Olimpia Active 86 / 98 40% 3 11.12.2026 -
Mateo Pisso Uruguay Montevideo Active 50 / 85 40% 1 10.12.2026 -
Marcos Paolini Progreso Active 100 / 98 40% 1 09.12.2026 -
Gus Hoefsloot Sydney FC Active 68 / 58 40% 1 08.12.2026 -
Claudio Lopez Almagro Active 91 / 80 40% 1 04.12.2026 -
Cristian Baldovino Atletico Bucaramanga Active 88 / 79 40% 1 02.12.2026 -
Mathías Bernatene Liverpool Montevideo Active 87 / 87 40% 2 01.12.2026 -
Ignacio Zambudio Belgrano Active 91 / 93 40% 1 30.11.2026 -
Tomás Chetelain Estudiantes Active 75 / 109 40% 1 30.11.2026 -
Alex Baigorria Defensores Unidos Active 75 / 90 40% 1 24.11.2026 -
Juan Pablo Posse Atlético Tucumán Active 89 / 97 40% 1 24.11.2026 -
Mateo Lizondo Colón Active 74 / 82 40% 1 19.11.2026 -
Manuel Rodríguez Millonarios Active 98 / 108 40% 1 19.11.2026 -
Gonzalo Quinteros Godoy Cruz Active 79 / 102 40% 2 18.11.2026 -
Cristhofer Mesías Universidad de Concepcion Active 98 / 109 40% 3 17.11.2026 -
Tiziano Girard Defensores Unidos Active 111 / 94 40% 3 17.11.2026 -
Alejo Medina Agropecuario Argentino Active 85 / 81 40% 2 15.11.2026 -
Juan Francisco Rossel Universidad Catolica Active 95 / 87 40% 1 13.11.2026 -
Arthur De Lima Central Coast Mariners Active 100 / 110 40% 3 10.11.2026 -
Francisco Ginella Albion Active 96 / 92 40% 1 08.11.2026 -
Enzo Aguirre Agropecuario Argentino Active 124 / 116 40% 1 07.11.2026 -
Maicol León Huachipato Active 91 / 73 40% 1 07.11.2026 -
David Agudelo Depor Active 97 / 85 40% 3 06.11.2026 -
Valentín Culasso Talleres Active 100 / 103 40% 1 05.11.2026 -
Tomás Romero Unión de Santa Fe Active 114 / 98 40% 1 05.11.2026 -
James Waine Hawke's Bay United Active 68 / 69 40% 2 31.10.2026 -
Lucas Acosta San Martín SJ Active 78 / 98 40% 1 30.10.2026 -
Lorenzo Orzán Colón Active 70 / 102 40% 1 30.10.2026 -
Zachary De Jesus Sydney FC Active 83 / 78 40% 1 30.10.2026 -
Francisco Gualtieri Estudiantes Active 87 / 80 40% 1 29.10.2026 -
Andrew Zamorano Rewa Active 100 / 91 40% 1 28.10.2026 -
Bautista La Licata Belgrano Active 76 / 106 40% 1 27.10.2026 -
Luciano Cingolani Gimnasia y Esgrima Active 123 / 99 40% 2 24.10.2026 -
Carlo Lattanzio San Martín SJ Active 124 / 113 40% 1 24.10.2026 -
Felipe Obradovich Ferro Carril Oeste Active 84 / 102 40% 2 22.10.2026 -
Adrián Csenterics Estudiantes de Merida Active 103 / 85 40% 1 21.10.2026 -
Joaquín Santos Almirante Brown Active 67 / 99 40% 1 21.10.2026 -
Thiago Chamorro Chaco For Ever Active 89 / 107 40% 1 20.10.2026 -
Alexis Dulón Huracán Active 113 / 100 40% 1 19.10.2026 -
Luca Regiardo Newell's Old Boys Active 121 / 109 40% 1 18.10.2026 -
Facundo Altamirano San Lorenzo Active 99 / 129 40% 1 17.10.2026 -
Juan Camacaro Aragua Active 106 / 101 40% 1 16.10.2026 -
Iván Martín San Lorenzo Active 95 / 88 40% 1 16.10.2026 -
Renzo Uriburu San Telmo Active 95 / 100 40% 2 15.10.2026 -
Mateo Ortale Maipú Active 122 / 112 40% 2 14.10.2026 -
Lautaro Occhiuzzi Atlanta Active 77 / 88 40% 1 13.10.2026 -
Juan González Atlético Tucumán Active 83 / 102 40% 1 13.10.2026 -
Nicolás Linares Gimnasia y Esgrima Active 117 / 114 40% 1 11.10.2026 -
Emanuel Sittaro Instituto Active 116 / 81 40% 1 10.10.2026 -
Matías Escobar San Miguel Active 91 / 105 40% 1 09.10.2026 -
Lautaro Gaitán Colón Active 82 / 87 40% 1 08.10.2026 -
Ezequiel Medina Alvarado Active 84 / 98 40% 1 07.10.2026 -
Giovanni Marques Argentinos Juniors Active 80 / 112 40% 1 05.10.2026 -
Agustín Valverde Godoy Cruz Active 107 / 120 40% 1 03.10.2026 -
Adrián Vega Gimnasia y Tiro Active 90 / 91 40% 1 02.10.2026 -
Gerónimo Tomasetti Temperley Active 90 / 108 40% 1 02.10.2026 -
Duván Mósquera Aguilas Doradas Active 94 / 118 40% 1 30.09.2026 -
Santiago Acosta Belgrano Active 72 / 117 40% 1 30.09.2026 -
Mathías Bordón Sol de America Active 68 / 87 40% 1 30.09.2026 -
Juan Idarraga Huracán Active 90 / 98 40% 1 29.09.2026 -
Emanuel Quinteros Godoy Cruz Active 104 / 104 40% 1 28.09.2026 -
Ulugbek Masharipov Obod Active 88 / 91 40% 1 27.09.2026 -
Valentino Huertas Morón Active 84 / 97 40% 1 27.09.2026 -
Luca Landriel Maipú Active 81 / 92 40% 1 25.09.2026 -
Miqueas Redín Plaza Colonia Active 95 / 80 40% 1 25.09.2026 -
Mauro Carrizo Atlético Tucumán Active 96 / 104 40% 1 21.09.2026 -
Jordan Vale Team Wellington Active 75 / 71 40% 1 21.09.2026 -
Lucas Scicluna Perth Glory Active 56 / 67 40% 1 20.09.2026 -
Lucas Cohen Estudiantes Active 78 / 103 40% 1 20.09.2026 -
Riley Foxe Perth Glory Active 84 / 98 40% 1 17.09.2026 -
Martín Rodríguez Mitre Active 101 / 124 40% 1 17.09.2026 -
Lautaro Puma Ferro Carril Oeste Active 77 / 82 40% 2 13.09.2026 -
Richard Nkomo Newcastle Jets Active 68 / 77 40% 1 12.09.2026 -
Tiziano Croci Vélez Active 79 / 112 40% 1 09.09.2026 -
Fernando Benítez Sportivo Luqueno Active 108 / 91 40% 1 09.09.2026 -
Gaspar Agulles Argentinos Juniors Active 87 / 113 40% 1 06.09.2026 -
Michael Waine Southern United Active 70 / 86 40% 1 06.09.2026 -
Andriano Lebib Perth Glory Active 76 / 93 40% 1 06.09.2026 -
Ignacio Kalinger Huracán Active 93 / 73 40% 1 04.09.2026 -
Emanuel Infante Independiente Rivadavia Active 98 / 93 40% 1 02.09.2026 -
Lautaro Ávila Racing Active 78 / 106 40% 1 02.09.2026 -
Luis Guevara Real Cartagena Active 103 / 119 40% 1 01.09.2026 -
Atonio Tuivuna Lautoka Active 59 / 64 44% 1 31.08.2026 -
Santiago Luna Quilmes Active 95 / 107 40% 1 29.08.2026 -
Joan Sosa Defensa y Justicia Active 72 / 82 40% 1 28.08.2026 -
Luis Landázuri Atletico Nacional Active 73 / 93 40% 1 27.08.2026 -
Pedro Dacrema Independiente Rivadavia Active 86 / 94 40% 1 23.08.2026 -
Ignacio Sinturión Colón Active 75 / 94 40% 1 21.08.2026 -
Santiago Rodríguez Huracán Active 78 / 83 40% 1 20.08.2026 -
Thiago Yfran Temperley Active 104 / 99 40% 1 18.08.2026 -
Stiven Muhlethaler Penarol Active 112 / 117 40% 1 18.08.2026 -
Gerónimo Patritti Gimnasia y Esgrima Active 108 / 113 40% 1 03.08.2026 -
Enzo Reynoso Defensa y Justicia Active 73 / 77 40% 1 03.08.2026 -
Alexander González Boston River Active 100 / 98 40% 1 01.08.2026 -